Location: Unspecified
(0.0000°N, 0.0000°E)
Time: 09:53:35
(UTC+00:00)

CUTE 1.7 + AOD 2 - Visible Passes

Search period start: 25 June 2018 00:00
Search period end: 05 July 2018 00:00
Orbit: 594 x 613 km, 97.5° (Epoch: 24 June)

Date Brightness Start Highest point End Pass type
(mag) Time Alt. Az. Time Alt. Az. Time Alt. Az.
25 Jun ? 18:52:10 10° SSW 18:55:36 25° WSW 18:59:02 10° NW visible
26 Jun ? 05:23:34 10° ENE 05:26:06 15° ESE 05:28:37 10° SE visible
26 Jun ? 19:05:08 10° SW 19:07:49 17° WSW 19:10:29 10° WNW visible
27 Jun ? 05:34:56 10° NE 05:38:18 23° ESE 05:41:41 10° SSE visible
27 Jun ? 19:18:57 10° WSW 19:20:01 11° WSW 19:21:05 10° W visible
01 Jul ? 18:29:15 10° S 18:33:19 51° WSW 18:37:23 10° NNW visible
02 Jul ? 18:41:46 10° SSW 18:45:32 33° WSW 18:49:19 10° NW visible
03 Jul ? 05:14:43 10° E 05:16:04 11° ESE 05:17:23 10° ESE visible
03 Jul ? 18:54:28 10° SSW 18:57:45 22° WSW 19:01:00 10° NW visible
04 Jul ? 05:25:28 10° ENE 05:28:16 17° ESE 05:31:04 10° SE visible
04 Jul ? 19:07:33 10° SW 19:09:56 15° WSW 19:12:20 10° WNW visible
